Home > Time Zones > World Clock > Weather > Chad > Sarh > Past weeks

Flag for Chad Weather past 2 weeks in Sarh, Chad

Now
91 °F

Partly sunny.


Feels Like: 99 °F
Forecast: 73 / 80 °F
Wind: 5 mph from Southwest

Location: Sarh Airport

Current Time: Aug 3, 2015 at 12:50:23 PM

Latest Report: Aug 3, 2015 at 12:00 PM


Visibility: N/A

Pressure: 29.98 "Hg

Humidity: 52%

Dew point: 72 °F

Location of SarhLocation

Historic Weather in Sarh — Graph

°F

Sarh temperature yesterday

Maximum temperature yesterday: 86 °F (at 2:00 PM)
Minimum temperature yesterday: 73 °F (at 12:00 AM)
Average temperature yesterday: 79 °F

Past Weeks' High & Low Weather Summary

 TemperatureHumidityPressure
High97 °F (Jul 26, 4:00 PM)100% (Jul 31, 4:00 AM)30.04 "Hg (Jul 31, 4:00 AM)
Low72 °F (Jul 19, 10:00 PM)39% (Jul 26, 4:00 PM)29.80 "Hg (Jul 19, 4:00 PM)
Average80 °F78%29.94 "Hg
* Reported Jul 19 11:00 AM — Aug 3 11:00 AM, Sarh, Weather by CustomWeather, © 2015

Note: Actual official high and low records may vary slightly from our data, if they occured in-between our weather recording intervals... More about our weather records

Advertising

Sarh weather history for previous 24 hours

 ConditionsComfort  
Time TempWeatherWind HumidityBarometerVisibility
11:00 AM
Mon, Aug 3
88 °FBroken clouds.5 mph79%29.98 "HgN/A
10:00 AM86 °FScattered clouds.5 mph79%29.98 "HgN/A
9:00 AM82 °FPassing clouds.5 mphN/AN/AN/A
8:00 AM81 °FSunny.No wind84%29.98 "Hg10 mi
7:00 AM77 °FPassing clouds.5 mph89%29.95 "HgN/A
6:00 AM75 °FPassing clouds.No wind94%29.95 "HgN/A
5:00 AM75 °FThunderstorms. Passing clouds.No wind94%29.95 "HgN/A
4:00 AM75 °FThunderstorms. Passing clouds.No wind94%29.95 "HgN/A
3:00 AM77 °FThunderstorms. Passing clouds.No wind94%29.92 "HgN/A
2:00 AM77 °FThunderstorms. Passing clouds.No wind94%29.92 "HgN/A
11:00 PM
Sun, Aug 2
79 °FClear.No wind89%29.92 "Hg10 mi
10:00 PM79 °FClear.No wind89%29.89 "Hg10 mi
9:00 PM81 °FThunderstorms. Passing clouds.No wind84%29.89 "HgN/A
8:00 PM81 °FThunderstorms. Passing clouds.No wind84%29.86 "HgN/A
7:00 PM82 °FClear.No wind74%29.86 "Hg10 mi
5:00 PM86 °FPassing clouds.No wind66%29.89 "HgN/A
4:00 PM86 °FScattered clouds.No wind70%29.86 "HgN/A
3:00 PM86 °FScattered clouds.No wind70%29.89 "HgN/A
2:00 PM86 °FPartly sunny.No wind66%29.92 "HgN/A
1:00 PM84 °FPartly sunny.No wind70%29.98 "HgN/A
12:00 PM82 °FBroken clouds.No wind74%30.01 "HgN/A
Weather by CustomWeather, © 2015

See weather overviewHow to use our weather pages